Location: Peterborough
(44.3091°N, 78.3197°W)
Time: 16:37:48
(UTC-04:00)

Transit 2A - Pass Details

Date: 25 March 2023
Orbit: 591 x 964 km, 66.7° (Epoch: 04 June)

Event Time Altitude Azimuth Distance (km) Brightness Sun altitude
Rises 07:27:26 0° 242° (WSW) 3,242 8.7 2.7°
Reaches altitude 10° 07:29:59 10° 252° (WSW) 2,380 8.0 3.2°
Maximum altitude 07:34:55 32° 316° (NW) 1,425 7.1 4.1°
Drops below altitude 10° 07:40:19 10° 19° (NNE) 2,602 9.0 5.0°
Sets 07:43:14 0° 29° (NNE) 3,591 9.8 5.5°
